Showing default

MOLNIYA 1-90, 24960

Orbit data source: Space-Track

MOLNIYA 1-90, 24960 is a payload satellite owned by VKS RVSN (CIS) in HEO that was launched on Wed, 24 Sep 1997 UTC via an MOLNIYA 8K78M launch vehicle from the Plesetsk Missile And Space Complex (PKMTR). Payload-class satellites include a variety of spacecraft equipped with specific instruments for various scientific and technological missions. These include communications satellites like Starlink; space stations such as the ISS; scientific satellites like the Hubble; Earth observation satellites from companies like Planet Labs, Umbra, and HawkEye 360; GPS; miniature CubeSats for education and research; and military/defense satellites.

Loading next visibility...
Identifier
24960, 1997-054A
Orbit
HEO
Country
Flag of CISCIS
Related business
Manufacturer
NPO PM
Mission
Defense Communications
Bus & Motor
MOLNIYA-1T, Unknown motor
Mass
1,670 kg wet, ~1,620 kg dry
Launch date (UTC)
1997-09-24 (28 years ago)
Launch vehicle
MOLNIYA 8K78M
Launch site
Plesetsk Missile And Space Complex (PKMTR)
Object type
Payload
Rocket body
Debris
Shape & HBR
Cyl + Cone + 6 Pan, 4.3 m
Radar Cross Section
15.107 m², Large (>1 m²)

Expand to show TLE details & history
Last TLE update: 2 days ago

TLE from 2 days ago
0 MOLNIYA 1-90
1 24960U 97054A   25345.12655782  .00000013  00000-0  19265-2 0  9990
2 24960  64.3900 241.6890 5947089 283.5911  20.0164  3.18687598248569
Epoch: 2025-12-11T03:02Z
TLE epoch observation values (Epoch: 2025-12-11T03:02:14.595Z)
Latitude
-0.00012°
Longitude
116.03195°
Altitude
4,699.053 km
Speed
7.179 km/s
True Right ascension
16h 06m 43s
True Declination
0° 00' 00"
Sunlit
Object was in daylight at epoch
Visualization orbit readout
Latitude
Unknown
Longitude
Unknown
Altitude
Unknown
Speed
Unknown
Apparent Right ascension
Unknown
Apparent Declination
Unknown
Sunlit
N/A
Visualization observer readout
Local Sidereal Time
07:32:41
Azimuth
Unknown
Elevation
Unknown
Doppler factor
Unknown
Orbital elements
Apogee altitude
24,726.048 km
Perigee altitude
1,526.91 km
Semi-major axis
19,504.616 km
Eccentricity
0.59471
Inclination
64.39°
RAAN
241.689°
Arg. of periapsis
283.5911°
True anomaly
76.64426°
Mean anomaly
20.0164°
Eccentric anomaly
43.45005°
Mean motion
0.79678 °/min
Orbital period
451.82 mins
BSTAR
0.0019265
Loading maneuver chart data...
Computing Atmospheric mass density...
Loading historical data...
Loading historical data...
Loading historical data...
Loading historical data...
Loading historical data...
Loading historical data...
Loading historical data...
Other satellites on launch #54 in the year 1997 (1997-09-24 UTC)

Documentation

Showing up to 5 results
|